,

(GMT )
Al Udeid

Weather History for KQIR - February, 2013

Change the Weather History Date:

Friday, February 1, 2013

  Actual Average Record
Temperature  
Mean Temperature 69 °F -  
Max Temperature 75 °F - - ()
Min Temperature 63 °F - - ()
Cooling Degree Days 4    
Growing Degree Days 19 (Base 50)    
Moisture  
Dew Point 61 °F    
Average Humidity 75    
Maximum Humidity 94    
Minimum Humidity 49    
Precipitation  
Precipitation 0.00 in - - ()
Sea Level Pressure  
Sea Level Pressure 29.92 in    
Wind  
Wind Speed 11 mph ()    
Max Wind Speed 15 mph    
Max Gust Speed 20 mph    
Visibility 5.1 miles    
Events Rain    
Averages and records for this station are not official NWS values.
T = Trace of Precipitation, MM = Missing Value Source: Averaged Metar Reports

Daily Weather History Graph

Daily Weather History Graph

Search for Another Location

Airport or City:

Trip Planner

Search our weather history database for the weather conditions in past years. The results will help you decide how hot, cold, wet, or windy it might be!

Date:

Astronomy

Feb. 01, 2013 Rise Set
Actual Time 6:17 AM +03 5:19 PM +03
Civil Twilight 5:53 AM +03 5:43 PM +03
Nautical Twilight 5:26 AM +03 6:10 PM +03
Astronomical Twilight 4:59 AM +03 6:37 PM +03
Moon 10:18 PM +03 (2/1) 9:15 AM +03 (2/1)
Length of Visible Light 11h 49m
Length of Day
11h 01m
Waning Gibbous, 74% of the Moon is Illuminated
Feb 1
Waning Gibbous
Feb 3
Last Quarter
Feb 10
New
Feb 17
First Quarter
Feb 25
Full

Hourly Weather History & Observations

Time (+03) Temp. Dew Point Humidity Pressure Visibility Wind Dir Wind Speed Gust Speed Precip Events Conditions
12:55 AM 69.1 °F 65.1 °F 87% 29.85 in 6.2 mi NE 10.4 mph - N/A   Clear
1:55 AM 69.4 °F 65.7 °F 88% 29.86 in 3.7 mi North 11.5 mph - N/A   Scattered Clouds
2:37 AM 69.8 °F 66.2 °F 88% 29.85 in 6.2 mi NNE 15.0 mph - N/A   Light Drizzle
2:47 AM 69.8 °F 66.2 °F 88% 29.85 in 6.2 mi NE 13.8 mph - N/A   Clear
2:55 AM 69.4 °F 65.7 °F 88% 29.84 in 3.7 mi NE 15.0 mph - 0.00 in   Scattered Clouds
3:54 AM 69.8 °F 66.2 °F 88% 29.86 in 3.7 mi NNE 15.0 mph - N/A Rain Light Rain
3:55 AM 69.3 °F 65.7 °F 88% 29.86 in 3.7 mi NNE 15.0 mph - 0.00 in Rain Light Rain
4:09 AM 68.0 °F 66.2 °F 94% 29.87 in 3.7 mi North 13.8 mph - N/A   Mostly Cloudy
4:55 AM 68.4 °F 64.8 °F 88% 29.88 in 3.7 mi NNE 15.0 mph - 0.00 in   Mostly Cloudy
5:55 AM 68.0 °F 62.1 °F 81% 29.91 in 6.2 mi NNE 12.7 mph - N/A   Mostly Cloudy
6:55 AM 67.8 °F 61.2 °F 79% 29.92 in 6.2 mi NNE 9.2 mph - N/A   Mostly Cloudy
7:55 AM 68.5 °F 61.5 °F 78% 29.94 in 3.7 mi NE 10.4 mph - N/A   Haze
8:55 AM 70.0 °F 62.2 °F 76% 29.95 in 5.0 mi NE 9.2 mph - N/A   Haze
9:55 AM 71.4 °F 62.2 °F 73% 29.96 in 3.1 mi North 11.5 mph - N/A   Haze
10:55 AM 72.9 °F 61.5 °F 67% 29.94 in 3.7 mi North 9.2 mph - N/A   Haze
11:55 AM 74.5 °F 57.7 °F 56% 29.93 in 5.0 mi NNW 11.5 mph - N/A   Haze
12:55 PM 75.6 °F 58.1 °F 55% 29.91 in 5.0 mi NNW 11.5 mph - N/A   Haze
1:55 PM 75.0 °F 57.0 °F 53% 29.90 in 5.6 mi NNW 10.4 mph 19.6 mph N/A   Haze
2:55 PM 75.6 °F 55.0 °F 49% 29.91 in 5.6 mi NNW 15.0 mph - N/A   Haze
3:55 PM 74.1 °F 57.7 °F 56% 29.92 in 5.6 mi NNW 13.8 mph - N/A   Haze
4:55 PM 72.9 °F 59.7 °F 63% 29.94 in 5.6 mi NNE 10.4 mph - N/A   Haze
5:55 PM 71.2 °F 57.7 °F 62% 29.95 in 5.0 mi North 13.8 mph - N/A   Haze
6:55 PM 69.4 °F 58.5 °F 68% 29.98 in 5.6 mi North 12.7 mph - N/A   Haze
7:55 PM 68.0 °F 58.5 °F 71% 29.99 in 6.2 mi NNW 10.4 mph - N/A   Clear
8:55 PM 66.2 °F 59.9 °F 80% 29.99 in 6.2 mi NNW 11.5 mph - N/A   Clear
9:55 PM 65.5 °F 58.8 °F 79% 29.99 in 6.2 mi NNW 13.8 mph - N/A   Clear
10:55 PM 63.9 °F 57.7 °F 80% 29.99 in 6.2 mi NNW 10.4 mph - N/A   Clear
11:55 PM 63.1 °F 57.4 °F 81% 29.98 in 6.2 mi NNW 9.2 mph - N/A   Clear